Back to catalog

SL-16 DEB

AliveLEO
NORAD 39862·DEBRIS·🇷🇺 Russia

Launched Dec 25, 1992 from Baikonur Cosmodrome

Loading…

Next Passes (next 24 hours)

TLE

StaleSource: Space-Track

Epoch: Sep 5, 2026, 11:47 UTC

1 39862U 92093LQ  26248.49127979  .00002043  00000-0  33458-3 0  9996
2 39862  70.8284 187.8198 0066484 298.1592  61.2852 14.70701793640367

Track SL-16 DEB in real time with AllMySat

Download on the App Store